sat.trackr.live / text

‹ back to catalog

STARLINK-35936

NORAD 66620 · 2025-271D

PAYLOAD ACTIVE UNKNOWN

§ Identity

Operator
Country
US
Launch date
2025-11-23
Launch site
AFWTR
Launch vehicle
Mass (kg)
RCS (m²)

Purposes: comms

External: N2YO · Heavens-Above · Gunter

§ Orbital elements

Epoch: 2026-09-20T09:59:42.563040Z

Period
93.85 min
Inclination
53.1604°
Eccentricity
0.0001971
Mean motion
15.34394635 rev/d
Perigee alt
461.4 km
Apogee alt
464.1 km
Semi-major
6,840.9 km
B*
2.4490e-4
RAAN
313.7934°
Arg perigee
149.1044°
Mean anomaly
211.0075°
Rev number
4,740

§ Raw data

STARLINK-359361 66620U 25271D   26263.41646485  .00007905  00000+0  24490-3 0  99962 66620  53.1604 313.7934 0001971 149.1044 211.0075 15.34394635 47406

JSON: /api/v1/satellites/66620 · /tle

For live sub-satellite position, see the globe view (requires WebGL).

§ Visibility from observer

Set your observer location to see the next 7 days of passes ≥ 10°. The values pass through the URL so the page stays shareable.

No JS? Fill the form by hand. The geolocation button needs JavaScript.